�v������,���O�C��(��),���O���x(��),�Ɠx(lx),��O�J�Z���T�[(1:�~�J),����(m/s)
2022-11-01 00:00:00,14.1,85.5,0,,0
2022-11-01 00:10:00,14.3,86.2,0,,0
2022-11-01 00:20:00,14.2,86.1,0,,0
2022-11-01 00:30:00,14.4,85.8,0,,0
2022-11-01 00:40:00,14.2,85.2,0,,0
2022-11-01 00:50:00,14.4,85.5,0,,0
2022-11-01 01:00:00,14.4,85.1,0,,0
2022-11-01 01:10:00,14.4,84.8,0,,0
2022-11-01 01:20:00,14.4,84.7,0,,0
2022-11-01 01:30:00,14.6,84.5,0,,0
2022-11-01 01:40:00,14.7,84.5,0,,0
2022-11-01 01:50:00,14.8,84.3,0,,0
2022-11-01 02:00:00,14.8,83.7,0,,0
2022-11-01 02:10:00,14.8,84.2,0,,0
2022-11-01 02:20:00,14.9,83.9,0,,0
2022-11-01 02:30:00,14.8,83.8,0,,0
2022-11-01 02:40:00,14.7,83.1,0,,0
2022-11-01 02:50:00,14.9,83.1,0,,0
2022-11-01 03:00:00,15,82.8,0,,0
2022-11-01 03:10:00,14.9,82.6,0,,0
2022-11-01 03:20:00,14.8,82.9,0,,0
2022-11-01 03:30:00,14.9,82.6,0,,0
2022-11-01 03:40:00,15.2,82.2,0,,0
2022-11-01 03:50:00,15.3,82.3,0,,0
2022-11-01 04:00:00,15.1,82.5,0,,0
2022-11-01 04:10:00,15.2,82.6,0,,0
2022-11-01 04:20:00,15.1,83.3,0,,0
2022-11-01 04:30:00,15.1,84.2,0,,0
2022-11-01 04:40:00,15.2,84.5,0,,0
2022-11-01 04:50:00,15.1,85.1,0,,0
2022-11-01 05:00:00,14.9,85.5,0,,0
2022-11-01 05:10:00,14.9,85.6,0,,0
2022-11-01 05:20:00,14.7,85.7,0,,0
2022-11-01 05:30:00,15,86.3,0,,0
2022-11-01 05:40:00,15.1,86.3,0,,0
2022-11-01 05:50:00,15.2,85.8,0,,0
2022-11-01 06:00:00,15,86.1,0,,0
2022-11-01 06:10:00,15.1,86.1,0,,0
2022-11-01 06:20:00,15.2,86.1,0,,0
2022-11-01 06:30:00,15.1,85.3,0,,0
2022-11-01 06:40:00,15.1,85,0,,0
2022-11-01 06:50:00,15.4,84.9,0,,0
2022-11-01 07:00:00,15.6,84.5,0,,0
2022-11-01 07:10:00,15.6,83.9,0,,0
2022-11-01 07:20:00,15.7,83.8,0,,0
2022-11-01 07:30:00,15.5,83.9,0,,0
2022-11-01 07:40:00,15.6,84.2,0,,0
2022-11-01 07:50:00,15.7,85.4,0,,0
2022-11-01 08:00:00,15.8,85.8,0,,0
2022-11-01 08:10:00,15.8,85.9,0,,0
2022-11-01 08:20:00,15.9,85,0,,0
2022-11-01 08:30:00,16.1,84.8,0,,0
2022-11-01 08:40:00,16.2,84.4,0,,0
2022-11-01 08:50:00,16.2,84.3,0,,0
2022-11-01 09:00:00,16.4,84.1,0,,0
2022-11-01 09:10:00,16.6,82.6,0,,0
2022-11-01 09:20:00,16.6,83.4,0,,0
2022-11-01 09:30:00,16.6,83.2,0,,0
2022-11-01 09:40:00,16.5,83.4,0,,0
2022-11-01 09:50:00,16.7,83.6,0,,0
2022-11-01 10:00:00,16.8,84.7,0,,0
2022-11-01 10:10:00,17.1,82,0,,0
2022-11-01 10:20:00,17.5,79.4,0,,0
2022-11-01 10:30:00,17.9,76.6,0,,0
2022-11-01 10:40:00,18,73.9,0,,0
2022-11-01 10:50:00,18.2,72.8,0,,0
2022-11-01 11:00:00,18,72.9,0,,0
2022-11-01 11:10:00,18.3,72.6,0,,0
2022-11-01 11:20:00,18.2,75.1,0,,0
2022-11-01 11:30:00,18.2,76.2,0,,0
2022-11-01 11:40:00,18.1,76.4,0,,0
2022-11-01 11:50:00,18.2,75.7,0,,0
2022-11-01 12:00:00,18.2,74.2,0,,0
2022-11-01 12:10:00,18.4,74,0,,0
2022-11-01 12:20:00,18.3,73.3,0,,0
2022-11-01 12:30:00,18.3,72.4,0,,0
2022-11-01 12:40:00,18.6,71.6,0,,0
2022-11-01 12:50:00,18.3,72.5,0,,0
2022-11-01 13:00:00,18.3,71.4,0,,0
2022-11-01 13:10:00,18.4,71.3,0,,0
2022-11-01 13:20:00,18.7,70.4,13998.1,0.0,2
2022-11-01 13:30:00,18.6,69.3,18995.2,0.0,3
2022-11-01 13:40:00,18.9,69.2,24985.6,0.0,1
2022-11-01 13:50:00,19.1,66,16998.4,0.0,1
2022-11-01 14:00:00,19.1,65.6,15994.9,0.0,1
2022-11-01 14:10:00,19.1,63.9,14991.4,0.0,1
2022-11-01 14:20:00,19.2,62.7,15994.9,0.0,2
2022-11-01 14:30:00,19.7,61.3,20992,0.0,1
2022-11-01 14:40:00,19.6,61.5,19998.7,0.0,1
2022-11-01 14:50:00,19.5,62.7,18995.2,0.0,4
2022-11-01 15:00:00,19.5,63.5,15493.1,0.0,2.5
2022-11-01 15:10:00,19.5,62.4,17489.9,0.0,1
2022-11-01 15:20:00,19.9,61,16998.4,0.0,2
2022-11-01 15:30:00,19.7,60.6,13998.1,0.0,2
2022-11-01 15:40:00,19.6,62.4,11991,0.0,3
2022-11-01 15:50:00,19.6,61.9,11991,0.0,3.5
2022-11-01 16:00:00,19.5,58.5,10997.8,0.0,2
2022-11-01 16:10:00,19.6,58.6,19998.7,0.0,1
2022-11-01 16:20:00,19.6,57.6,7997.44,0.0,2
2022-11-01 16:30:00,19.6,56.6,5995.52,0.0,2
2022-11-01 16:40:00,19.3,57.4,4999.68,0.0,1.5
2022-11-01 16:50:00,19.2,60,2997.76,0.0,1
2022-11-01 17:00:00,19,60.8,2997.76,0.0,1
2022-11-01 17:10:00,18.7,61.8,999.68,0.0,1
2022-11-01 17:20:00,18.7,62.9,999.68,0.0,2
2022-11-01 17:30:00,18.7,63.2,196,0.0,1
2022-11-01 17:40:00,18.6,64.4,88,0.0,1
2022-11-01 17:50:00,18.5,64.1,8,0.0,2
2022-11-01 18:00:00,18.7,64.2,2,0.0,1
2022-11-01 18:10:00,18.6,65.6,2,0.0,1
2022-11-01 18:20:00,18.6,64.9,2,0.0,2
2022-11-01 18:30:00,18.7,64.3,2,0.0,1
2022-11-01 18:40:00,18.8,64.8,2,0.0,1
2022-11-01 18:50:00,18.6,65.6,2,0.0,2
2022-11-01 19:00:00,18.5,66.4,2,0.0,0
2022-11-01 19:10:00,18.3,66.7,2,0.0,1
2022-11-01 19:20:00,18.5,67.2,2,0.0,1
2022-11-01 19:30:00,18.3,68.4,2,0.0,1
2022-11-01 19:40:00,18.1,70.4,2,0.0,0
2022-11-01 19:50:00,17.8,72.3,2,0.0,1
2022-11-01 20:00:00,17.7,74.2,2,0.0,0
2022-11-01 20:10:00,17.4,75.8,2,0.0,0
2022-11-01 20:20:00,17.2,76.8,2,0.0,1
2022-11-01 20:30:00,16.9,76.8,2,0.0,1
2022-11-01 20:40:00,17,76.4,2,0.0,0
2022-11-01 20:50:00,16.8,75.9,2,0.0,1
2022-11-01 21:00:00,17.1,75.8,2,0.0,1
2022-11-01 21:10:00,16.7,76.7,2,0.0,1
2022-11-01 21:20:00,16.7,76.4,2,0.0,1
2022-11-01 21:30:00,16.6,76.9,2,0.0,1
2022-11-01 21:40:00,16.6,76.2,2,0.0,2
2022-11-01 21:50:00,16.4,75.6,2,0.0,1
2022-11-01 22:00:00,16.6,75.3,2,0.0,1
2022-11-01 22:10:00,16.7,75.5,2,0.0,0
2022-11-01 22:20:00,16.8,75.2,2,0.0,1
2022-11-01 22:30:00,17,74.2,2,0.0,1
2022-11-01 22:40:00,17,74.2,2,0.0,1
2022-11-01 22:50:00,16.9,73.9,2,0.0,1
2022-11-01 23:00:00,16.7,74.9,2,0.0,2
2022-11-01 23:10:00,16.8,75.5,2,0.0,1
2022-11-01 23:20:00,16.9,75.7,2,0.0,1
2022-11-01 23:30:00,17.1,80.1,2,0.0,1
2022-11-01 23:40:00,17.9,78.2,2,0.0,1
2022-11-01 23:50:00,18.2,78,2,0.0,1
2022-11-02 00:00:00,18.5,78.1,2,0.0,2
2022-11-02 00:10:00,18.4,78.1,2,0.0,1
2022-11-02 00:20:00,18.3,77.9,2,0.0,1
2022-11-02 00:30:00,18.1,78.4,2,0.0,2
2022-11-02 00:40:00,17.8,79.2,2,0.0,4
2022-11-02 00:50:00,17.9,80.3,2,0.0,6
2022-11-02 01:00:00,17.8,82,2,0.0,3
2022-11-02 01:10:00,17.6,82.3,0,0.0,2
2022-11-02 01:20:00,17.6,82.9,0,0.0,2.5
2022-11-02 01:30:00,17.6,83.5,0,0.0,2
2022-11-02 01:40:00,17.5,83.8,0,0.0,3
2022-11-02 01:50:00,17.3,84.1,2,0.0,2.5
2022-11-02 02:00:00,17.4,84.8,0,0.0,2
2022-11-02 02:10:00,17.2,85.1,2,0.0,2
2022-11-02 02:20:00,17,85.1,0,0.0,2
2022-11-02 02:30:00,17.1,85.1,0,0.0,1
2022-11-02 02:40:00,17.5,85.6,0,0.0,1
2022-11-02 02:50:00,17.2,85.9,0,0.0,2
2022-11-02 03:00:00,17.1,85.2,2,0.0,1.5
2022-11-02 03:10:00,17,84.3,2,0.0,2
2022-11-02 03:20:00,17.3,83.6,0,0.0,1
2022-11-02 03:30:00,17,82.6,2,0.0,1
2022-11-02 03:40:00,16.2,82.9,2,0.0,2
2022-11-02 03:50:00,15.4,86.1,2,0.0,1.5
2022-11-02 04:00:00,15.1,88.1,0,0.0,1
2022-11-02 04:10:00,14.7,88.8,0,0.0,1
2022-11-02 04:20:00,14.6,89.1,0,0.0,1.5
2022-11-02 04:30:00,14.4,89.2,0,0.0,1
2022-11-02 04:40:00,14.3,89.6,0,0.0,2
2022-11-02 04:50:00,14.1,89.5,0,0.0,1
2022-11-02 05:00:00,14.3,89.3,2,0.0,1
2022-11-02 05:10:00,14.3,88.6,2,0.0,1
2022-11-02 05:20:00,14.5,87.5,0,0.0,1
2022-11-02 05:30:00,14.4,87,0,0.0,0
2022-11-02 05:40:00,14.6,86.5,2,0.0,1
2022-11-02 05:50:00,14.3,86.9,0,0.0,1
2022-11-02 06:00:00,14.4,86.7,2,0.0,1
2022-11-02 06:10:00,14.2,86.9,4,0.0,1
2022-11-02 06:20:00,14.1,87,28,0.0,2
2022-11-02 06:30:00,13.9,87,150,0.0,2
2022-11-02 06:40:00,13.8,87.2,499.84,0.0,1
2022-11-02 06:50:00,14,87.3,999.68,0.0,1
2022-11-02 07:00:00,14,87.4,1999.36,0.0,1.5
2022-11-02 07:10:00,14,87.2,1999.36,0.0,1
2022-11-02 07:20:00,14.3,86.6,2997.76,0.0,1
2022-11-02 07:30:00,14.2,86,2997.76,0.0,2
2022-11-02 07:40:00,14.3,85.6,4999.68,0.0,1
2022-11-02 07:50:00,14.3,85.5,4999.68,0.0,1
2022-11-02 08:00:00,14.3,85.3,3998.72,0.0,2
2022-11-02 08:10:00,14.5,84.6,6999.04,0.0,2
2022-11-02 08:20:00,15,83.8,14991.4,0.0,1
2022-11-02 08:30:00,15.3,82,10997.8,0.0,1
2022-11-02 08:40:00,16.1,79.2,18995.2,0.0,1
2022-11-02 08:50:00,16.5,77,11991,0.0,1
2022-11-02 09:00:00,16.9,76.3,15994.9,0.0,1
2022-11-02 09:10:00,17,75.5,8995.84,0.0,1
2022-11-02 09:20:00,17.1,76.1,19998.7,0.0,1
2022-11-02 09:30:00,17.4,74.9,16496.6,0.0,1
2022-11-02 09:40:00,17.9,73.4,12994.6,0.0,1
2022-11-02 09:50:00,18.3,72.3,13496.3,0.0,0
2022-11-02 10:00:00,18.4,71.7,16998.4,0.0,1
2022-11-02 10:10:00,18.9,70,36986.9,0.0,1
2022-11-02 10:20:00,19.2,70.6,26480.6,0.0,1
2022-11-02 10:30:00,19.2,72.3,36986.9,0.0,1
2022-11-02 10:40:00,18.8,73.7,20992,0.0,2
2022-11-02 10:50:00,18.9,73.8,24494.1,0.0,1
2022-11-02 11:00:00,19.3,72.2,21483.5,0.0,1
2022-11-02 11:10:00,19.2,73,22999,0.0,2
2022-11-02 11:20:00,19.2,74,28999.7,0.0,2
2022-11-02 11:30:00,19.2,75,20992,0.0,2
2022-11-02 11:40:00,19.1,74.7,19998.7,0.0,1
2022-11-02 11:50:00,19.6,73.6,37990.4,0.0,2
2022-11-02 12:00:00,20.4,69.7,34979.8,0.0,1
2022-11-02 12:10:00,20.5,69.7,22999,0.0,2
2022-11-02 12:20:00,20.1,71.3,34979.8,0.0,2.5
2022-11-02 12:30:00,20.5,71.7,35983.4,0.0,1
2022-11-02 12:40:00,20,72.5,38993.9,0.0,3
2022-11-02 12:50:00,19.8,73.8,17991.7,0.0,3
2022-11-02 13:00:00,19.8,74.3,14991.4,0.0,3
2022-11-02 13:10:00,19.5,75,10997.8,0.0,4.5
2022-11-02 13:20:00,19.8,74.2,18995.2,0.0,3
2022-11-02 13:30:00,19.9,74.2,25497.6,0.0,2
2022-11-02 13:40:00,20.7,69.2,21995.5,0.0,1
2022-11-02 13:50:00,21,67.2,22999,0.0,2
2022-11-02 14:00:00,21.3,66,16998.4,0.0,2
2022-11-02 14:10:00,21.2,66.6,13998.1,0.0,1
2022-11-02 14:20:00,21.1,66.7,17489.9,0.0,1
2022-11-02 14:30:00,21.1,67.1,18995.2,0.0,1
2022-11-02 14:40:00,20.9,67,16496.6,0.0,2
2022-11-02 14:50:00,21,67.1,14991.4,0.0,2
2022-11-02 15:00:00,21.1,66.8,10997.8,0.0,0.5
2022-11-02 15:10:00,20.9,66.5,21483.5,0.0,2
2022-11-02 15:20:00,21.2,66.4,23982.1,0.0,2.5
2022-11-02 15:30:00,21,66.6,22999,0.0,2
2022-11-02 15:40:00,21,69.2,18493.4,0.0,1
2022-11-02 15:50:00,20.7,69,18493.4,0.0,1
2022-11-02 16:00:00,20.7,70.1,17991.7,0.0,1
2022-11-02 16:10:00,20.7,70,15994.9,0.0,2
2022-11-02 16:20:00,20.7,69.7,13998.1,0.0,1
2022-11-02 16:30:00,20.8,69.6,12994.6,0.0,1
2022-11-02 16:40:00,20.7,70.2,10997.8,0.0,1
2022-11-02 16:50:00,20.5,71.8,7997.44,0.0,1
2022-11-02 17:00:00,20.2,72.4,4999.68,0.0,1
2022-11-02 17:10:00,19.9,74.1,2499.84,0.0,1
2022-11-02 17:20:00,19.6,75.4,999.68,0.0,1
2022-11-02 17:30:00,19.4,76.3,451.84,0.0,1
2022-11-02 17:40:00,19.2,76.8,90,0.0,0.5
2022-11-02 17:50:00,19.1,77,10,0.0,0
2022-11-02 18:00:00,19,78.9,2,0.0,1
2022-11-02 18:10:00,18.6,79.6,2,0.0,0
2022-11-02 18:20:00,18.7,81.1,2,0.0,0
2022-11-02 18:30:00,18.3,81.7,2,0.0,0
2022-11-02 18:40:00,18,82.6,2,0.0,0
2022-11-02 18:50:00,18.3,83.7,2,0.0,1
2022-11-02 19:00:00,17.9,84.7,2,0.0,1
2022-11-02 19:10:00,17.7,86.6,2,0.0,2
2022-11-02 19:20:00,17.2,87.7,2,0.0,0.5
2022-11-02 19:30:00,17.3,88.2,2,0.0,2
2022-11-02 19:40:00,17.2,88.5,2,0.0,1
2022-11-02 19:50:00,17,89,2,0.0,1
2022-11-02 20:00:00,17,89.3,2,0.0,2
2022-11-02 20:10:00,16.8,90.2,2,0.0,1
2022-11-02 20:20:00,16.6,90.7,0,0.0,1.5
2022-11-02 20:30:00,16.7,91.2,2,0.0,1
2022-11-02 20:40:00,16.4,91.3,2,0.0,1
2022-11-02 20:50:00,16.3,91.7,2,0.0,1
2022-11-02 21:00:00,16.3,92,2,0.0,2
2022-11-02 21:10:00,16.3,92.3,2,0.0,1
2022-11-02 21:20:00,15.9,92.5,2,0.0,1
2022-11-02 21:30:00,15.9,92.7,0,0.0,1
2022-11-02 21:40:00,15.6,93.5,2,0.0,2
2022-11-02 21:50:00,15.8,94,0,0.0,1.5
2022-11-02 22:00:00,15.4,94.3,0,0.0,0
2022-11-02 22:10:00,15.5,94.3,0,0.0,2
2022-11-02 22:20:00,15.7,94.5,2,0.0,0.5
2022-11-02 22:30:00,15.4,94.5,2,0.0,1.5
2022-11-02 22:40:00,15.3,94.7,2,0.0,1
2022-11-02 22:50:00,15.2,95,2,0.0,1
2022-11-02 23:00:00,15.2,95.1,2,0.0,0
2022-11-02 23:10:00,15,95.4,2,0.0,1
2022-11-02 23:20:00,14.9,95.6,2,0.0,1.5
2022-11-02 23:30:00,15,95.9,2,0.0,1
2022-11-02 23:40:00,14.9,96.4,2,0.0,1
2022-11-02 23:50:00,14.7,96.5,0,0.0,1
2022-11-03 00:00:00,14.9,96.8,2,0.0,1
2022-11-03 00:10:00,14.7,96.9,2,0.0,1
2022-11-03 00:20:00,14.6,96.9,2,0.0,1
2022-11-03 00:30:00,14.6,97.3,0,0.0,1
2022-11-03 00:40:00,14.3,97.7,0,0.0,1
2022-11-03 00:50:00,14.3,98,0,0.0,1
2022-11-03 01:00:00,14.2,98.1,2,0.0,0.5
2022-11-03 01:10:00,14,98.2,0,0.0,1
2022-11-03 01:20:00,14.2,98.2,2,0.0,1
2022-11-03 01:30:00,14,97.9,0,0.0,1
2022-11-03 01:40:00,14,98.5,0,0.0,1
2022-11-03 01:50:00,13.9,98.6,0,0.0,2
2022-11-03 02:00:00,14.1,98.2,2,0.0,1
2022-11-03 02:10:00,13.9,97.8,0,0.0,1.5
2022-11-03 02:20:00,13.9,97.8,2,0.0,1
2022-11-03 02:30:00,13.6,97.9,2,0.0,1
2022-11-03 02:40:00,13.6,97.7,2,0.0,1.5
2022-11-03 02:50:00,13.8,97.7,0,0.0,1
2022-11-03 03:00:00,13.8,97.9,0,0.0,0
2022-11-03 03:10:00,13.6,98.1,0,0.0,2
2022-11-03 03:20:00,13.5,98.2,0,0.0,1
2022-11-03 03:30:00,13.4,98.2,0,0.0,1
2022-11-03 03:40:00,13.1,98.2,0,0.0,1
2022-11-03 03:50:00,13.2,98.1,2,0.0,2
2022-11-03 04:00:00,13.2,98.1,0,0.0,1
2022-11-03 04:10:00,13.2,98.1,0,0.0,1
2022-11-03 04:20:00,13.2,98.2,0,0.0,1
2022-11-03 04:30:00,13,98.7,0,0.0,1
2022-11-03 04:40:00,12.8,99,2,0.0,1
2022-11-03 04:50:00,12.8,99,0,0.0,1
2022-11-03 05:00:00,12.8,98.3,2,0.0,2
2022-11-03 05:10:00,12.7,98.1,2,0.0,2
2022-11-03 05:20:00,13.1,98,2,0.0,1.5
2022-11-03 05:30:00,12.8,98.6,0,0.0,1
2022-11-03 05:40:00,12.7,98.9,2,0.0,1
2022-11-03 05:50:00,12.7,98.3,0,0.0,1
2022-11-03 06:00:00,12.4,98.6,2,0.0,1
2022-11-03 06:10:00,12.7,99.1,10,0.0,2
2022-11-03 06:20:00,12.3,99.1,98,0.0,2
2022-11-03 06:30:00,12.4,98.4,999.68,0.0,1
2022-11-03 06:40:00,12.6,98.4,999.68,0.0,1
2022-11-03 06:50:00,12.6,99.1,1999.36,0.0,1
2022-11-03 07:00:00,12.3,98.8,10997.8,0.0,1
2022-11-03 07:10:00,12.7,98.3,14991.4,0.0,1
2022-11-03 07:20:00,12.7,98.2,16998.4,0.0,2
2022-11-03 07:30:00,13,97.4,19998.7,0.0,2
2022-11-03 07:40:00,13.2,96.9,20992,0.0,1
2022-11-03 07:50:00,13.4,96.2,22999,0.0,1.5
2022-11-03 08:00:00,13.7,94.6,22999,0.0,2
2022-11-03 08:10:00,14.1,92.8,22999,0.0,2
2022-11-03 08:20:00,14.5,92.9,22999,0.0,1
2022-11-03 08:30:00,15,92.9,22999,0.0,1
2022-11-03 08:40:00,15.7,91.5,22999,0.0,1
2022-11-03 08:50:00,16.2,90.5,22999,0.0,1
2022-11-03 09:00:00,16.9,87.7,21995.5,0.0,1
2022-11-03 09:10:00,17.1,85.3,21995.5,0.0,1
2022-11-03 09:20:00,18,82.6,21995.5,0.0,1
2022-11-03 09:30:00,18.1,81.3,20992,0.0,1.5
2022-11-03 09:40:00,18.5,79.7,20992,0.0,1
2022-11-03 09:50:00,19,76.2,20992,0.0,1
2022-11-03 10:00:00,19.4,75.9,20992,0.0,2
2022-11-03 10:10:00,19.7,74.6,20992,0.0,1.5
2022-11-03 10:20:00,20.2,72.9,20992,0.0,1
2022-11-03 10:30:00,20.1,71.8,20992,0.0,1
2022-11-03 10:40:00,19.8,80.4,20992,0.0,4
2022-11-03 10:50:00,19.7,81.7,20992,0.0,2
2022-11-03 11:00:00,19.8,79.9,21995.5,0.0,2
2022-11-03 11:10:00,20,77.9,21995.5,0.0,2
2022-11-03 11:20:00,20.7,76,22999,0.0,1
2022-11-03 11:30:00,21.4,72.4,22999,0.0,1
2022-11-03 11:40:00,21.8,69.9,23982.1,0.0,1
2022-11-03 11:50:00,21.3,70.8,24985.6,0.0,2
2022-11-03 12:00:00,21.1,73.4,23982.1,0.0,3
2022-11-03 12:10:00,21.8,75.2,25989.1,0.0,1
2022-11-03 12:20:00,22.8,66.7,24985.6,0.0,2.5
2022-11-03 12:30:00,22.8,66.5,25989.1,0.0,3
2022-11-03 12:40:00,23,67.5,25989.1,0.0,2
2022-11-03 12:50:00,22.9,68.5,25989.1,0.0,4
2022-11-03 13:00:00,22.7,69.4,27996.2,0.0,1
2022-11-03 13:10:00,22.6,70.9,26992.6,0.0,2
2022-11-03 13:20:00,22.4,73.5,27996.2,0.0,3
2022-11-03 13:30:00,22.4,74,28999.7,0.0,3
2022-11-03 13:40:00,22.3,74.7,28999.7,0.0,2
2022-11-03 13:50:00,22.1,76.2,27996.2,0.0,2
2022-11-03 14:00:00,22.3,75.4,29982.7,0.0,2
2022-11-03 14:10:00,22.4,74.4,27996.2,0.0,2
2022-11-03 14:20:00,22.2,74.9,28999.7,0.0,3
2022-11-03 14:30:00,22.1,75.1,27996.2,0.0,2.5
2022-11-03 14:40:00,22,76.5,26992.6,0.0,2.5
2022-11-03 14:50:00,22,75.4,26992.6,0.0,3
2022-11-03 15:00:00,22,76.5,22999,0.0,2
2022-11-03 15:10:00,21.9,76.3,24985.6,0.0,2
2022-11-03 15:20:00,21.7,76.7,10997.8,0.0,3
2022-11-03 15:30:00,21.7,78.9,6999.04,0.0,3
2022-11-03 15:40:00,21.1,80.4,8995.84,0.0,1
2022-11-03 15:50:00,21.1,80.4,11991,0.0,3
2022-11-03 16:00:00,20.9,82.1,8995.84,0.0,1
2022-11-03 16:10:00,20.7,82.4,7997.44,0.0,2
2022-11-03 16:20:00,20.6,82.4,3998.72,0.0,1
2022-11-03 16:30:00,20.5,81.5,4999.68,0.0,1
2022-11-03 16:40:00,20.4,81,4999.68,0.0,2
2022-11-03 16:50:00,20.3,81.4,2997.76,0.0,2
2022-11-03 17:00:00,20,81.1,2997.76,0.0,2
2022-11-03 17:10:00,20,81.2,999.68,0.0,1
2022-11-03 17:20:00,19.9,80.8,999.68,0.0,1
2022-11-03 17:30:00,19.8,80.4,280,0.0,0
2022-11-03 17:40:00,19.7,80.6,42,0.0,0
2022-11-03 17:50:00,19.7,80.3,4,0.0,1
2022-11-03 18:00:00,19.6,79.8,2,0.0,0
2022-11-03 18:10:00,20,78.7,2,0.0,1
2022-11-03 18:20:00,19.9,78.1,2,0.0,1
2022-11-03 18:30:00,19.8,76.1,2,0.0,2
2022-11-03 18:40:00,19.7,76.8,2,0.0,1
2022-11-03 18:50:00,19.5,77.9,2,0.0,1
2022-11-03 19:00:00,19.4,78.3,2,0.0,1
2022-11-03 19:10:00,19.2,79.6,2,0.0,1
2022-11-03 19:20:00,19.2,79.3,2,0.0,3
2022-11-03 19:30:00,19.4,80,2,0.0,1.5
2022-11-03 19:40:00,19,79.8,2,0.0,2
2022-11-03 19:50:00,19,77,2,0.0,2
2022-11-03 20:00:00,19,77.8,2,0.0,2
2022-11-03 20:10:00,19,77.3,2,0.0,3
2022-11-03 20:20:00,18.8,76.8,2,0.0,3
2022-11-03 20:30:00,18.8,76.7,2,0.0,4
2022-11-03 20:40:00,18.7,76.3,2,0.0,3
2022-11-03 20:50:00,18.8,77,2,0.0,3
2022-11-03 21:00:00,18.6,77.2,2,0.0,3
2022-11-03 21:10:00,18.5,75.9,2,0.0,3
2022-11-03 21:20:00,18.7,75.9,2,0.0,4
2022-11-03 21:30:00,18.3,75.9,2,0.0,4
2022-11-03 21:40:00,18.5,74.7,2,0.0,5
2022-11-03 21:50:00,18.2,74.8,2,0.0,3.5
2022-11-03 22:00:00,18.5,75.1,2,0.0,3.5
2022-11-03 22:10:00,18.3,74.3,2,0.0,4
2022-11-03 22:20:00,18.6,73.7,2,0.0,5
2022-11-03 22:30:00,18.3,73,2,0.0,3
2022-11-03 22:40:00,18.6,73.6,2,0.0,4.5
2022-11-03 22:50:00,18.3,73.8,2,0.0,4
2022-11-03 23:00:00,18.2,72.8,2,0.0,6
2022-11-03 23:10:00,18.2,73.2,2,0.0,2
2022-11-03 23:20:00,18,72.8,0,0.0,2
2022-11-03 23:30:00,18.2,72.2,2,0.0,3
2022-11-03 23:40:00,18.2,71.8,2,0.0,3.5
2022-11-03 23:50:00,17.9,70.7,2,0.0,3.5
2022-11-04 00:00:00,18.2,70.9,2,0.0,2.5
2022-11-04 00:10:00,18.3,69.1,2,0.0,3.5
2022-11-04 00:20:00,18.1,69.3,0,0.0,3
2022-11-04 00:30:00,18.2,69.3,2,0.0,1.5
2022-11-04 00:40:00,18,69.2,0,0.0,3
2022-11-04 00:50:00,18.2,68.8,0,0.0,4
2022-11-04 01:00:00,17.8,67.5,2,0.0,3
2022-11-04 01:10:00,17.8,66.9,2,0.0,2
2022-11-04 01:20:00,18,66.6,0,0.0,2
2022-11-04 01:30:00,17.9,64.7,0,0.0,5
2022-11-04 01:40:00,17.7,62.2,0,0.0,5
2022-11-04 01:50:00,17.8,62.3,2,0.0,2
2022-11-04 02:00:00,18,57.1,0,0.0,2.5
2022-11-04 02:10:00,18,55.2,0,0.0,4
2022-11-04 02:20:00,18,53.4,0,0.0,2
2022-11-04 02:30:00,18.3,51.9,0,0.0,1
2022-11-04 02:40:00,18.2,51.3,0,0.0,1
2022-11-04 02:50:00,18,52.3,0,0.0,4
2022-11-04 03:00:00,18,54.5,2,0.0,4
2022-11-04 03:10:00,17.9,56.9,2,0.0,3.5
2022-11-04 03:20:00,17.7,57.5,2,0.0,3
2022-11-04 03:30:00,17.9,56.5,2,0.0,2
2022-11-04 03:40:00,17.9,57.4,0,0.0,3
2022-11-04 03:50:00,17.6,57.7,2,0.0,1
2022-11-04 04:00:00,17.7,56.8,0,0.0,4
2022-11-04 04:10:00,17.8,57.9,2,0.0,2
2022-11-04 04:20:00,17.6,59.2,2,0.0,4
2022-11-04 04:30:00,17.5,60,0,0.0,3
2022-11-04 04:40:00,17.4,61.2,0,0.0,3
2022-11-04 04:50:00,17.5,61.2,2,0.0,1
2022-11-04 05:00:00,16.7,65.1,2,0.0,1
2022-11-04 05:10:00,15.5,70.4,0,0.0,1
2022-11-04 05:20:00,15,73.6,2,0.0,1
2022-11-04 05:30:00,14.5,74.6,0,0.0,0
2022-11-04 05:40:00,14.5,74.3,0,0.0,1
2022-11-04 05:50:00,14.6,73.4,2,0.0,1
2022-11-04 06:00:00,14.3,75.3,2,0.0,1
2022-11-04 06:10:00,14,77.3,4,0.0,1
2022-11-04 06:20:00,13.7,77,30,0.0,0
2022-11-04 06:30:00,14.1,75.9,999.68,0.0,1
2022-11-04 06:40:00,14.1,75,999.68,0.0,1
2022-11-04 06:50:00,14.2,73.6,1999.36,0.0,1.5
2022-11-04 07:00:00,14.2,74.1,3998.72,0.0,0
2022-11-04 07:10:00,14.3,73.9,4999.68,0.0,1
2022-11-04 07:20:00,14.4,73.6,7997.44,0.0,2
2022-11-04 07:30:00,14.6,73.5,11991,0.0,1
2022-11-04 07:40:00,14.5,74.1,13998.1,0.0,1
2022-11-04 07:50:00,14.8,73.8,14991.4,0.0,1
2022-11-04 08:00:00,15.2,72.8,16998.4,0.0,0
2022-11-04 08:10:00,17.4,66.5,17991.7,0.0,2
2022-11-04 08:20:00,17.6,65.1,17991.7,0.0,3
2022-11-04 08:30:00,17.8,64.4,16998.4,0.0,4
2022-11-04 08:40:00,17.6,66,18995.2,0.0,6
2022-11-04 08:50:00,18,67,20992,0.0,5
2022-11-04 09:00:00,18,66.6,23982.1,0.0,5
2022-11-04 09:10:00,18.4,65,17991.7,0.0,5
2022-11-04 09:20:00,17.8,66.1,31989.8,0.0,7.5
2022-11-04 09:30:00,18.5,64.7,29982.7,0.0,2.5
2022-11-04 09:40:00,18.3,64.5,17991.7,0.0,2
2022-11-04 09:50:00,18.2,63.7,30986.2,0.0,3
2022-11-04 10:00:00,18.2,63,18995.2,0.0,2
2022-11-04 10:10:00,18,62.7,31989.8,0.0,2
2022-11-04 10:20:00,18.7,57.7,31498.2,0.0,1.5
2022-11-04 10:30:00,18.2,59.2,30986.2,0.0,4
2022-11-04 10:40:00,18.7,56.3,27996.2,0.0,4
2022-11-04 10:50:00,18.4,57.8,26992.6,0.0,5
2022-11-04 11:00:00,18.7,57.4,25989.1,0.0,4
2022-11-04 11:10:00,19.2,55.2,24985.6,0.0,1
2022-11-04 11:20:00,18.9,55.4,23982.1,0.0,3
2022-11-04 11:30:00,19.1,54.7,10997.8,0.0,5
2022-11-04 11:40:00,19.1,54.8,24985.6,0.0,4
2022-11-04 11:50:00,19.1,53.9,24985.6,0.0,3
2022-11-04 12:00:00,19.2,53.9,24985.6,0.0,3.5
2022-11-04 12:10:00,19.5,52.8,25989.1,0.0,3
2022-11-04 12:20:00,19.6,53.6,25989.1,0.0,3.5
2022-11-04 12:30:00,19.4,53.1,25989.1,0.0,7
2022-11-04 12:40:00,19.5,53.2,25989.1,0.0,2
2022-11-04 12:50:00,19.6,51.7,26992.6,0.0,4.5
2022-11-04 13:00:00,19.6,51.7,26992.6,0.0,2
2022-11-04 13:10:00,19.8,52.7,27996.2,0.0,2
2022-11-04 13:20:00,20.1,51.1,26992.6,0.0,3
2022-11-04 13:30:00,20,51.9,27996.2,0.0,2
2022-11-04 13:40:00,20.1,52.6,27996.2,0.0,2
2022-11-04 13:50:00,19.7,52.1,27996.2,0.0,3
2022-11-04 14:00:00,20,52,27996.2,0.0,3
2022-11-04 14:10:00,19.7,52,26992.6,0.0,6
2022-11-04 14:20:00,19.8,52.7,27996.2,0.0,2
2022-11-04 14:30:00,19.5,52,27996.2,0.0,2
2022-11-04 14:40:00,19.4,51.7,26992.6,0.0,3
2022-11-04 14:50:00,19.3,51,25989.1,0.0,5
2022-11-04 15:00:00,19.3,50,24985.6,0.0,4
2022-11-04 15:10:00,19.2,49.5,23982.1,0.0,2
2022-11-04 15:20:00,18.8,50.3,22999,0.0,2.5
2022-11-04 15:30:00,18.9,50.1,20992,0.0,4.5
2022-11-04 15:40:00,18.5,50.8,19998.7,0.0,3.5
2022-11-04 15:50:00,18.3,51.1,17991.7,0.0,7.5
2022-11-04 16:00:00,18.3,50.6,15994.9,0.0,10
2022-11-04 16:10:00,18.3,52.5,14991.4,0.0,3
2022-11-04 16:20:00,18.1,53,12994.6,0.0,8.5
2022-11-04 16:30:00,17.6,52.7,11991,0.0,3
2022-11-04 16:40:00,17.5,53.3,9999.36,0.0,5
2022-11-04 16:50:00,17.5,53.2,7997.44,0.0,7.5
2022-11-04 17:00:00,17.3,54.7,4999.68,0.0,4.5
2022-11-04 17:10:00,16.9,55.8,999.68,0.0,8
2022-11-04 17:20:00,16.7,58.3,999.68,0.0,4
2022-11-04 17:30:00,16.6,57,441.92,0.0,2
2022-11-04 17:40:00,16.4,57.3,66,0.0,2.5
2022-11-04 17:50:00,16.3,58.9,6,0.0,4.5
2022-11-04 18:00:00,16,59.7,2,0.0,5
2022-11-04 18:10:00,16.2,59.5,2,0.0,5.5
2022-11-04 18:20:00,15.8,60.5,2,0.0,3
2022-11-04 18:30:00,16.2,62,2,0.0,6
2022-11-04 18:40:00,15.9,60,2,0.0,2.5
2022-11-04 18:50:00,15.8,59.1,2,0.0,5.5
2022-11-04 19:00:00,15.6,60.1,0,0.0,3
2022-11-04 19:10:00,15.5,60.4,2,0.0,3
2022-11-04 19:20:00,15.4,61,2,0.0,6
2022-11-04 19:30:00,15.3,62.6,2,0.0,5
2022-11-04 19:40:00,15,62.3,2,0.0,5
2022-11-04 19:50:00,15.1,62.3,2,0.0,6
2022-11-04 20:00:00,15.3,64.3,2,0.0,2.5
2022-11-04 20:10:00,15,62.6,2,0.0,6.5
2022-11-04 20:20:00,14.9,62.2,2,0.0,7
2022-11-04 20:30:00,14.9,62.2,2,0.0,3
2022-11-04 20:40:00,14.8,60.9,2,0.0,5
2022-11-04 20:50:00,14.8,60.8,2,0.0,4
2022-11-04 21:00:00,14.7,60.8,0,0.0,4.5
2022-11-04 21:10:00,14.9,61.4,0,0.0,3
2022-11-04 21:20:00,14.5,63,0,0.0,3
2022-11-04 21:30:00,14.8,63.5,0,0.0,2
2022-11-04 21:40:00,14.8,62.4,0,0.0,2.5
2022-11-04 21:50:00,15,61.5,0,0.0,3.5
2022-11-04 22:00:00,15.1,61.7,0,0.0,2
2022-11-04 22:10:00,15,60.1,0,0.0,4
2022-11-04 22:20:00,14.9,61.4,2,0.0,1
2022-11-04 22:30:00,14,63.5,2,0.0,1
2022-11-04 22:40:00,13.5,66.3,2,0.0,1
2022-11-04 22:50:00,13.1,67.5,2,0.0,1
2022-11-04 23:00:00,13.2,67.7,0,0.0,1
2022-11-04 23:10:00,13.2,66.3,0,0.0,1
2022-11-04 23:20:00,13.1,67.2,2,0.0,1
2022-11-04 23:30:00,12.9,67.3,0,0.0,1
2022-11-04 23:40:00,12.5,68.2,2,0.0,1
2022-11-04 23:50:00,12.6,68.3,0,0.0,1
2022-11-05 00:00:00,12.8,67.7,2,0.0,0
2022-11-05 00:10:00,13,67.8,2,0.0,0.5
2022-11-05 00:20:00,12.8,68.3,2,0.0,1
2022-11-05 00:30:00,12.5,69.5,0,0.0,0
2022-11-05 00:40:00,12.6,70,2,0.0,0
2022-11-05 00:50:00,12.2,71.1,2,0.0,1
2022-11-05 01:00:00,12.2,71.7,0,0.0,0
2022-11-05 01:10:00,12.1,72.3,0,0.0,1
2022-11-05 01:20:00,12.1,73,0,0.0,1
2022-11-05 01:30:00,12,73.6,0,0.0,1
2022-11-05 01:40:00,11.9,74.4,0,0.0,1
2022-11-05 01:50:00,11.8,75.5,0,0.0,1
2022-11-05 02:00:00,11.6,76.4,2,0.0,2
2022-11-05 02:10:00,11.3,76.7,0,0.0,1